AIZ153 LLBG-LCPH

Flight info

Callsign AIZ153
Flight time 0h 47m
Altitude 30000
Route DAFNA W13 VELOX M42 ESERI
Aircraft A321/M-SDE3FGHIRWY/LB1

Departure

Time 2026-05-08 17:32
Airport Ben Gurion International Airport (LLBG)

Arrival

Time 2026-05-08 18:20
Airport Paphos International Airport (LCPH)
Time Latitude Longitude Altitude Speed Heading
2026-05-08 17:01 31.99736 34.88975 120 ft 0 kts 288°
2026-05-08 17:02 31.99736 34.88976 120 ft 0 kts 288°
2026-05-08 17:23 31.99734 34.88982 120 ft 2 kts 288°
2026-05-08 17:23 31.99728 34.89004 101 ft 3 kts 288°
2026-05-08 17:24 31.99722 34.89026 120 ft 2 kts 288°
2026-05-08 17:24 31.99717 34.89045 116 ft 3 kts 302°
2026-05-08 17:24 31.99705 34.89061 117 ft 3 kts 337°
2026-05-08 17:24 31.99688 34.89065 116 ft 3 kts
2026-05-08 17:25 31.99669 34.89060 117 ft 2 kts 18°
2026-05-08 17:25 31.99662 34.89057 116 ft 0 kts 18°
2026-05-08 17:29 31.99714 34.89077 117 ft 18 kts 18°
2026-05-08 17:29 31.99843 34.89126 119 ft 18 kts 18°
2026-05-08 17:30 31.99944 34.89093 117 ft 16 kts 307°
2026-05-08 17:30 31.99995 34.89094 118 ft 7 kts 30°
2026-05-08 17:30 32.00035 34.89122 116 ft 5 kts 30°
2026-05-08 17:30 32.00068 34.89139 119 ft 7 kts 17°
2026-05-08 17:31 32.00130 34.89161 119 ft 4 kts 334°
2026-05-08 17:31 32.00147 34.89138 117 ft 3 kts 307°
2026-05-08 17:31 32.00150 34.89132 117 ft 0 kts 302°
2026-05-08 17:31 32.00165 34.89104 116 ft 24 kts 302°
2026-05-08 17:32 32.00382 34.88683 121 ft 92 kts 301°
2026-05-08 17:32 32.00813 34.87852 117 ft 143 kts 301°
2026-05-08 17:32 32.01170 34.87158 392 ft 145 kts 303°
2026-05-08 17:32 32.01564 34.85758 1252 ft 146 kts 269°
2026-05-08 17:33 32.01379 34.84552 1755 ft 152 kts 265°
2026-05-08 17:33 32.01274 34.83714 1980 ft 161 kts 267°
2026-05-08 17:33 32.01125 34.82307 2163 ft 184 kts 268°
2026-05-08 17:33 32.00971 34.80730 2397 ft 202 kts 268°
2026-05-08 17:34 32.00787 34.79009 2614 ft 220 kts 266°
2026-05-08 17:34 32.00577 34.77197 3086 ft 225 kts 266°
2026-05-08 17:34 32.00360 34.75364 3763 ft 226 kts 265°
2026-05-08 17:34 32.00172 34.73524 4423 ft 229 kts 271°
2026-05-08 17:35 32.00495 34.71620 4675 ft 248 kts 298°
2026-05-08 17:35 32.01647 34.70082 5060 ft 262 kts 322°
2026-05-08 17:35 32.03127 34.68774 5666 ft 269 kts 322°
2026-05-08 17:35 32.04645 34.67435 6316 ft 275 kts 321°
2026-05-08 17:36 32.06194 34.66063 6950 ft 280 kts 321°
2026-05-08 17:36 32.07767 34.64668 7628 ft 283 kts 321°
2026-05-08 17:36 32.09330 34.63280 8310 ft 286 kts 321°
2026-05-08 17:36 32.10923 34.61866 8998 ft 288 kts 321°
2026-05-08 17:37 32.12533 34.60437 9680 ft 290 kts 320°
2026-05-08 17:37 32.14157 34.58991 10251 ft 297 kts 320°
2026-05-08 17:37 32.15862 34.57463 10377 ft 318 kts 321°
2026-05-08 17:37 32.17683 34.55831 10486 ft 337 kts 320°
2026-05-08 17:38 32.19605 34.54113 10641 ft 354 kts 321°
2026-05-08 17:38 32.21566 34.52365 11044 ft 361 kts 321°
2026-05-08 17:38 32.23587 34.50566 11589 ft 364 kts 321°
2026-05-08 17:38 32.25615 34.48760 12179 ft 365 kts 321°
2026-05-08 17:39 32.27653 34.46942 12783 ft 367 kts 321°
2026-05-08 17:39 32.29677 34.45134 13380 ft 369 kts 321°
2026-05-08 17:39 32.31736 34.43293 13935 ft 371 kts 321°
2026-05-08 17:39 32.33807 34.41443 14422 ft 373 kts 321°
2026-05-08 17:40 32.35886 34.39588 14922 ft 375 kts 321°
2026-05-08 17:40 32.37977 34.37717 15415 ft 377 kts 321°
2026-05-08 17:40 32.40075 34.35836 15898 ft 379 kts 321°
2026-05-08 17:40 32.42180 34.33940 16368 ft 381 kts 322°
2026-05-08 17:41 32.44290 34.32037 16817 ft 383 kts 322°
2026-05-08 17:41 32.46419 34.30120 17255 ft 385 kts 322°
2026-05-08 17:41 32.48555 34.28202 17671 ft 387 kts 322°
2026-05-08 17:41 32.50682 34.26291 18081 ft 389 kts 322°
2026-05-08 17:42 32.52934 34.24505 18450 ft 392 kts 330°
2026-05-08 17:42 32.55458 34.23240 18782 ft 396 kts 341°
2026-05-08 17:42 32.58170 34.22574 19132 ft 400 kts 352°
2026-05-08 17:42 32.60942 34.22268 19486 ft 401 kts 352°
2026-05-08 17:43 32.63742 34.21954 19854 ft 402 kts 352°
2026-05-08 17:43 32.66507 34.21635 20213 ft 404 kts 352°
2026-05-08 17:43 32.69307 34.21307 20578 ft 405 kts 352°
2026-05-08 17:43 32.72129 34.20977 20955 ft 407 kts 352°
2026-05-08 17:44 32.74955 34.20650 21333 ft 408 kts 352°
2026-05-08 17:44 32.77790 34.20327 21725 ft 410 kts 352°
2026-05-08 17:44 32.80637 34.20004 22106 ft 411 kts 352°
2026-05-08 17:44 32.83487 34.19679 22493 ft 413 kts 352°
2026-05-08 17:45 32.86351 34.19351 22870 ft 414 kts 352°
2026-05-08 17:45 32.89228 34.19021 23262 ft 415 kts 352°
2026-05-08 17:45 32.92113 34.18693 23633 ft 417 kts 352°
2026-05-08 17:45 32.95007 34.18366 23943 ft 418 kts 352°
2026-05-08 17:46 32.97907 34.18035 24262 ft 419 kts 352°
2026-05-08 17:46 33.00780 34.17706 24567 ft 420 kts 352°
2026-05-08 17:46 33.03698 34.17369 24873 ft 421 kts 352°
2026-05-08 17:46 33.06622 34.17031 25188 ft 423 kts 351°
2026-05-08 17:47 33.09552 34.16691 25490 ft 424 kts 351°
2026-05-08 17:47 33.12499 34.16349 25794 ft 425 kts 351°
2026-05-08 17:47 33.15447 34.16009 26100 ft 426 kts 351°
2026-05-08 17:47 33.17397 34.15785 26294 ft 427 kts 352°
2026-05-08 17:48 33.21355 34.15332 26687 ft 428 kts 352°
2026-05-08 17:48 33.24323 34.14991 26969 ft 429 kts 351°
2026-05-08 17:48 33.27302 34.14649 27241 ft 430 kts 351°
2026-05-08 17:48 33.30286 34.14306 27499 ft 431 kts 351°
2026-05-08 17:49 33.33275 34.13961 27738 ft 432 kts 351°
2026-05-08 17:49 33.36270 34.13612 27969 ft 433 kts 351°
2026-05-08 17:49 33.39272 34.13263 28185 ft 434 kts 351°
2026-05-08 17:49 33.42282 34.12913 28398 ft 434 kts 351°
2026-05-08 17:50 33.45253 34.12566 28594 ft 435 kts 351°
2026-05-08 17:50 33.48267 34.12216 28855 ft 434 kts 351°
2026-05-08 17:50 33.51275 34.11869 29128 ft 432 kts 351°
2026-05-08 17:50 33.54269 34.11522 29427 ft 431 kts 351°
2026-05-08 17:51 33.57243 34.11178 29702 ft 429 kts 351°
2026-05-08 17:51 33.60215 34.10835 29982 ft 428 kts 351°
2026-05-08 17:51 33.63178 34.10496 30087 ft 423 kts 351°
2026-05-08 17:51 33.66090 34.10163 30103 ft 417 kts 351°
2026-05-08 17:52 33.71834 34.09491 30106 ft 413 kts 351°
2026-05-08 17:52 33.77415 34.08263 30104 ft 407 kts 336°
2026-05-08 17:53 33.79926 34.06726 30103 ft 404 kts 325°
2026-05-08 17:53 33.82092 34.04583 30102 ft 403 kts 314°
2026-05-08 17:53 33.83829 34.01937 30099 ft 405 kts 303°
2026-05-08 17:54 33.86221 33.95777 30105 ft 407 kts 296°
2026-05-08 17:54 33.88487 33.89506 30096 ft 408 kts 296°
2026-05-08 17:55 33.90729 33.83290 30102 ft 408 kts 296°
2026-05-08 17:55 33.92995 33.77009 30097 ft 408 kts 296°
2026-05-08 17:55 33.94129 33.73860 29843 ft 410 kts 295°
2026-05-08 17:56 33.95263 33.70701 29297 ft 410 kts 295°
2026-05-08 17:56 33.96384 33.67579 28767 ft 412 kts 295°
2026-05-08 17:56 33.97522 33.64407 28237 ft 414 kts 295°
2026-05-08 17:56 33.98668 33.61205 27716 ft 417 kts 295°
2026-05-08 17:57 33.99816 33.57990 27200 ft 419 kts 295°
2026-05-08 17:57 34.00972 33.54751 26713 ft 421 kts 295°
2026-05-08 17:57 34.02130 33.51500 26212 ft 423 kts 295°
2026-05-08 17:57 34.03289 33.48242 25727 ft 422 kts 295°
2026-05-08 17:58 34.04445 33.44996 25253 ft 420 kts 295°
2026-05-08 17:58 34.05593 33.41766 24790 ft 418 kts 295°
2026-05-08 17:58 34.06739 33.38538 24328 ft 416 kts 295°
2026-05-08 17:58 34.07878 33.35326 23868 ft 415 kts 295°
2026-05-08 17:59 34.09013 33.32128 23374 ft 413 kts 295°
2026-05-08 17:59 34.10143 33.28950 22843 ft 411 kts 295°
2026-05-08 17:59 34.11252 33.25827 22327 ft 409 kts 294°
2026-05-08 17:59 34.12368 33.22675 21809 ft 407 kts 294°
2026-05-08 18:00 34.13474 33.19544 21317 ft 405 kts 294°
2026-05-08 18:00 34.15669 33.13325 20327 ft 400 kts 294°
2026-05-08 18:00 34.16758 33.10235 19848 ft 398 kts 294°
2026-05-08 18:01 34.17828 33.07194 19380 ft 396 kts 293°
2026-05-08 18:01 34.18904 33.04139 18915 ft 394 kts 293°
2026-05-08 18:01 34.19974 33.01097 18450 ft 392 kts 293°
2026-05-08 18:01 34.21037 32.98073 17938 ft 390 kts 293°
2026-05-08 18:02 34.22093 32.95061 17416 ft 388 kts 293°
2026-05-08 18:02 34.22802 32.93037 17066 ft 386 kts 293°
2026-05-08 18:02 34.24182 32.89091 16401 ft 383 kts 293°
2026-05-08 18:02 34.25214 32.86140 15906 ft 380 kts 293°
2026-05-08 18:03 34.26240 32.83208 15422 ft 378 kts 293°
2026-05-08 18:03 34.27259 32.80290 14941 ft 375 kts 293°
2026-05-08 18:03 34.28259 32.77418 14477 ft 373 kts 293°
2026-05-08 18:03 34.29260 32.74537 14007 ft 371 kts 294°
2026-05-08 18:04 34.30415 32.71771 13497 ft 367 kts 303°
2026-05-08 18:04 34.31808 32.69191 12999 ft 366 kts 303°
2026-05-08 18:04 34.33196 32.66611 12482 ft 364 kts 303°
2026-05-08 18:04 34.34572 32.64049 11986 ft 362 kts 303°
2026-05-08 18:05 34.35942 32.61491 11484 ft 360 kts 303°
2026-05-08 18:05 34.37301 32.58945 11000 ft 358 kts 303°
2026-05-08 18:05 34.38624 32.56452 10541 ft 356 kts 303°
2026-05-08 18:05 34.39944 32.53946 10071 ft 350 kts 303°
2026-05-08 18:06 34.41239 32.51463 9566 ft 344 kts 303°
2026-05-08 18:06 34.42503 32.49024 9055 ft 339 kts 303°
2026-05-08 18:06 34.43741 32.46626 8707 ft 329 kts 303°
2026-05-08 18:06 34.44922 32.44321 8572 ft 313 kts 303°
2026-05-08 18:07 34.46045 32.42119 8448 ft 299 kts 303°
2026-05-08 18:07 34.47109 32.40023 8314 ft 285 kts 303°
2026-05-08 18:07 34.48130 32.38006 8033 ft 278 kts 303°
2026-05-08 18:07 34.49123 32.36034 7635 ft 276 kts 303°
2026-05-08 18:08 34.50110 32.34064 7374 ft 265 kts 303°
2026-05-08 18:08 34.51046 32.32185 7111 ft 257 kts 303°
2026-05-08 18:08 34.51961 32.30338 6787 ft 254 kts 303°
2026-05-08 18:08 34.52871 32.28504 6437 ft 253 kts 303°
2026-05-08 18:09 34.53777 32.26673 6069 ft 252 kts 303°
2026-05-08 18:09 34.54677 32.24850 5717 ft 251 kts 303°
2026-05-08 18:09 34.55575 32.23038 5340 ft 250 kts 303°
2026-05-08 18:09 34.56454 32.21260 5025 ft 249 kts 303°
2026-05-08 18:10 34.57344 32.19458 4668 ft 247 kts 303°
2026-05-08 18:10 34.58230 32.17677 4352 ft 244 kts 303°
2026-05-08 18:10 34.59102 32.15933 4141 ft 237 kts 304°
2026-05-08 18:10 34.60009 32.14293 3898 ft 230 kts 318°
2026-05-08 18:11 34.61298 32.13211 3601 ft 225 kts 333°
2026-05-08 18:11 34.62675 32.12358 3321 ft 224 kts 336°
2026-05-08 18:11 34.64161 32.11967 3056 ft 217 kts
2026-05-08 18:11 34.65618 32.12334 3013 ft 209 kts 15°
2026-05-08 18:12 34.66988 32.12806 2889 ft 201 kts 15°
2026-05-08 18:12 34.68320 32.13279 2558 ft 198 kts 15°
2026-05-08 18:12 34.69634 32.13746 2129 ft 197 kts 15°
2026-05-08 18:12 34.70906 32.14219 2011 ft 185 kts 16°
2026-05-08 18:13 34.72108 32.14659 2013 ft 181 kts 15°
2026-05-08 18:13 34.73301 32.15096 2013 ft 178 kts 15°
2026-05-08 18:13 34.74488 32.15534 2012 ft 178 kts 15°
2026-05-08 18:13 34.75677 32.15973 2018 ft 178 kts 15°
2026-05-08 18:14 34.76861 32.16411 2015 ft 178 kts 16°
2026-05-08 18:14 34.78049 32.16844 2012 ft 178 kts 15°
2026-05-08 18:14 34.79140 32.17552 2018 ft 180 kts 39°
2026-05-08 18:14 34.79887 32.18750 2020 ft 183 kts 62°
2026-05-08 18:15 34.80184 32.20268 2006 ft 189 kts 86°
2026-05-08 18:15 34.79933 32.21837 2019 ft 192 kts 109°
2026-05-08 18:15 34.79451 32.23365 2008 ft 192 kts 108°
2026-05-08 18:15 34.78981 32.24886 2012 ft 191 kts 108°
2026-05-08 18:16 34.78513 32.26403 2012 ft 192 kts 108°
2026-05-08 18:16 34.78042 32.27930 2009 ft 193 kts 108°
2026-05-08 18:16 34.77581 32.29438 2009 ft 191 kts 108°
2026-05-08 18:16 34.77120 32.30956 2010 ft 190 kts 107°
2026-05-08 18:17 34.76663 32.32471 2011 ft 192 kts 107°
2026-05-08 18:17 34.76207 32.33979 2008 ft 184 kts 108°
2026-05-08 18:17 34.75782 32.35374 2006 ft 171 kts 107°
2026-05-08 18:17 34.75374 32.36723 1856 ft 168 kts 107°
2026-05-08 18:18 34.74981 32.38020 1624 ft 159 kts 108°
2026-05-08 18:18 34.74601 32.39271 1411 ft 157 kts 108°
2026-05-08 18:18 34.74224 32.40513 1203 ft 156 kts 107°
2026-05-08 18:18 34.73850 32.41749 1005 ft 155 kts 108°
2026-05-08 18:19 34.73485 32.42959 802 ft 153 kts 107°
2026-05-08 18:19 34.73126 32.44153 615 ft 149 kts 108°
2026-05-08 18:19 34.72769 32.45322 394 ft 146 kts 109°
2026-05-08 18:19 34.72423 32.46464 223 ft 143 kts 107°
2026-05-08 18:20 34.72083 32.47594 50 ft 139 kts 108°
2026-05-08 18:20 34.71787 32.48577 41 ft 97 kts 110°
2026-05-08 18:20 34.71680 32.48919 45 ft 23 kts 110°
2026-05-08 18:20 34.71583 32.48991 43 ft 17 kts 197°
2026-05-08 18:21 34.71499 32.48912 42 ft 13 kts 246°
2026-05-08 18:21 34.71463 32.48819 43 ft 11 kts 245°
2026-05-08 18:21 34.71431 32.48737 42 ft 10 kts 245°
2026-05-08 18:21 34.71404 32.48665 43 ft 9 kts 245°
2026-05-08 18:22 34.71371 32.48577 43 ft 16 kts 246°
2026-05-08 18:22 34.71347 32.48492 44 ft 15 kts 269°
2026-05-08 18:22 34.71361 32.48387 44 ft 9 kts 240°
2026-05-08 18:22 34.71306 32.48398 44 ft 6 kts 152°
2026-05-08 18:23 34.71270 32.48412 44 ft 5 kts 163°
2026-05-08 18:23 34.71269 32.48413 44 ft 0 kts 163°
2026-05-08 18:24 34.71269 32.48412 35 ft 0 kts 163°